2018-055B

Last updated on June 30, 2018, 12:15 a.m. UTC

1 43523U 18055B   18180.79780167 -.00046886  11864-4 -70863-4 0  9995
2 43523  51.6445 316.2967 0103050  48.1595  65.2844 15.93057582    58

Satellite is not in orbit.